| time (UTC) | temp F | wind direction | speed knots | gust knots | rain 1hr in | rain 24hr in | rain mn in | humidity % | barometer mb |
| 20260906025847 | 82 | 197 | 0.0 | 0.9 | 0.00 | 0.00 | 0.00 | 84 | 1012.5 |
| 20260906025341 | 82 | 195 | 0.0 | 0.0 | 0.00 | 0.00 | 0.00 | 83 | 1012.3 |
| 20260906024840 | 82 | 229 | 0.0 | 0.9 | 0.00 | 0.00 | 0.00 | 83 | 1012.1 |
| 20260906024339 | 82 | 205 | 0.0 | 0.0 | 0.00 | 0.00 | 0.00 | 82 | 1012.1 |
| 20260906023835 | 82 | 224 | 0.0 | 0.0 | 0.00 | 0.00 | 0.00 | 81 | 1012.1 |
| 20260906023331 | 83 | 225 | 0.0 | 0.9 | 0.00 | 0.00 | 0.00 | 81 | 1012.1 |
| 20260906022826 | 83 | 235 | 0.0 | 0.9 | 0.00 | 0.00 | 0.00 | 81 | 1012.2 |
| 20260906022321 | 82 | 194 | 0.0 | 0.9 | 0.00 | 0.00 | 0.00 | 83 | 1012.1 |
| 20260906021817 | 82 | 252 | 0.0 | 0.9 | 0.00 | 0.00 | 0.00 | 84 | 1012.1 |
| 20260906021315 | 82 | 202 | 0.0 | 0.0 | 0.00 | 0.00 | 0.00 | 83 | 1012.0 |
| 20260906020810 | 82 | 212 | 0.0 | 0.0 | 0.00 | 0.00 | 0.00 | 83 | 1012.0 |
| 20260906020309 | 82 | 205 | 0.0 | 0.0 | 0.00 | 0.00 | 0.00 | 82 | 1012.0 |
| 20260906015804 | 83 | 205 | 0.0 | 0.0 | 0.00 | 0.00 | 0.00 | 82 | 1012.0 |
| 20260906015305 | 83 | 202 | 0.0 | 0.0 | 0.00 | 0.00 | 0.00 | 82 | 1012.1 |
| 20260906014802 | 83 | 202 | 0.0 | 0.0 | 0.00 | 0.00 | 0.00 | 81 | 1012.0 |
| 20260906014258 | 83 | 202 | 0.0 | 0.0 | 0.00 | 0.00 | 0.00 | 81 | 1012.1 |
| 20260906013755 | 83 | 202 | 0.0 | 0.0 | 0.00 | 0.00 | 0.00 | 81 | 1011.9 |
| 20260906013255 | 83 | 202 | 0.0 | 0.0 | 0.00 | 0.00 | 0.00 | 80 | 1011.8 |
| 20260906012750 | 83 | 202 | 0.0 | 0.0 | 0.00 | 0.00 | 0.00 | 79 | 1011.8 |
| 20260906012245 | 83 | 202 | 0.0 | 0.0 | 0.00 | 0.00 | 0.00 | 79 | 1011.7 |
| 20260906011740 | 84 | 202 | 0.0 | 0.0 | 0.00 | 0.00 | 0.00 | 78 | 1011.8 |
| 20260906011239 | 84 | 202 | 0.0 | 0.0 | 0.00 | 0.00 | 0.00 | 78 | 1011.7 |
| 20260906010735 | 84 | 202 | 0.0 | 0.0 | 0.00 | 0.00 | 0.00 | 78 | 1011.5 |
| 20260906010232 | 85 | 202 | 0.0 | 0.0 | 0.00 | 0.00 | 0.00 | 77 | 1011.5 |
| 20260906005727 | 85 | 202 | 0.0 | 0.0 | 0.00 | 0.00 | 0.00 | 76 | 1011.6 |
| 20260906005226 | 85 | 202 | 0.0 | 0.0 | 0.00 | 0.00 | 0.00 | 76 | 1011.5 |
| 20260906004725 | 85 | 202 | 0.0 | 0.0 | 0.00 | 0.00 | 0.00 | 75 | 1011.5 |
| 20260906004220 | 86 | 202 | 0.0 | 0.0 | 0.00 | 0.00 | 0.00 | 74 | 1011.4 |
| 20260906003715 | 86 | 202 | 0.0 | 0.0 | 0.00 | 0.00 | 0.00 | 73 | 1011.5 |
| 20260906003211 | 87 | 195 | 0.0 | 0.0 | 0.00 | 0.00 | 0.00 | 72 | 1011.5 |
| 20260906002706 | 87 | 242 | 0.0 | 0.0 | 0.00 | 0.00 | 0.00 | 70 | 1011.6 |
| 20260906002201 | 88 | 284 | 0.0 | 0.0 | 0.00 | 0.00 | 0.00 | 68 | 1011.6 |
| 20260906001655 | 88 | 309 | 0.0 | 0.0 | 0.00 | 0.00 | 0.00 | 67 | 1011.6 |
| 20260906001155 | 89 | 297 | 0.0 | 0.0 | 0.00 | 0.00 | 0.00 | 66 | 1011.6 |
| 20260906000651 | 89 | 284 | 0.0 | 0.0 | 0.00 | 0.00 | 0.00 | 66 | 1011.6 |
| 20260906000146 | 90 | 269 | 0.0 | 0.0 | 0.00 | 0.00 | 0.00 | 66 | 1011.8 |
| 20260905235645 | 90 | 269 | 0.0 | 0.0 | 0.00 | 0.00 | 0.00 | 64 | 1011.6 |
| 20260905235140 | 90 | 269 | 0.0 | 0.9 | 0.00 | 0.00 | 0.00 | 65 | 1011.8 |
| 20260905234635 | 91 | 290 | 0.0 | 0.0 | 0.00 | 0.00 | 0.00 | 64 | 1011.6 |
| 20260905234132 | 91 | 269 | 0.0 | 0.0 | 0.00 | 0.00 | 0.00 | 62 | 1011.7 |
| 20260905233631 | 91 | 269 | 0.0 | 0.0 | 0.00 | 0.00 | 0.00 | 63 | 1011.8 |
| 20260905233125 | 92 | 269 | 0.0 | 0.9 | 0.00 | 0.00 | 0.00 | 62 | 1011.7 |
| 20260905232621 | 93 | 293 | 0.0 | 0.0 | 0.00 | 0.00 | 0.00 | 59 | 1011.7 |
| 20260905232117 | 94 | 62 | 0.0 | 0.0 | 0.00 | 0.00 | 0.00 | 58 | 1011.5 |
| 20260905231617 | 94 | 62 | 0.0 | 0.0 | 0.00 | 0.00 | 0.00 | 55 | 1011.7 |
| 20260905231113 | 95 | 217 | 0.0 | 0.9 | 0.00 | 0.00 | 0.00 | 55 | 1011.6 |
| 20260905230609 | 95 | 164 | 0.0 | 0.0 | 0.00 | 0.00 | 0.00 | 52 | 1011.7 |
| 20260905230107 | 95 | 181 | 0.9 | 0.9 | 0.00 | 0.00 | 0.00 | 51 | 1011.7 |
| 20260905225606 | 96 | 345 | 0.0 | 1.7 | 0.00 | 0.00 | 0.00 | 52 | 1011.7 |
| 20260905225102 | 96 | 192 | 0.9 | 0.9 | 0.00 | 0.00 | 0.00 | 51 | 1011.6 |
| 20260905224601 | 96 | 180 | 0.0 | 0.0 | 0.00 | 0.00 | 0.00 | 51 | 1011.6 |
| 20260905224101 | 96 | 129 | 0.0 | 0.9 | 0.00 | 0.00 | 0.00 | 51 | 1011.8 |
| 20260905223558 | 96 | 228 | 0.0 | 0.9 | 0.00 | 0.00 | 0.00 | 50 | 1011.5 |
| 20260905223054 | 97 | 353 | 0.0 | 0.9 | 0.00 | 0.00 | 0.00 | 51 | 1011.5 |
| 20260905222554 | 97 | 284 | 0.0 | 1.7 | 0.00 | 0.00 | 0.00 | 51 | 1011.6 |
| 20260905222049 | 97 | 49 | 0.0 | 1.7 | 0.00 | 0.00 | 0.00 | 50 | 1011.6 |
| 20260905221545 | 98 | 322 | 0.0 | 0.9 | 0.00 | 0.00 | 0.00 | 50 | 1011.7 |
| 20260905221041 | 98 | 295 | 0.0 | 0.9 | 0.00 | 0.00 | 0.00 | 49 | 1011.5 |
| 20260905220537 | 100 | 9 | 0.0 | 1.7 | 0.00 | 0.00 | 0.00 | 48 | 1011.6 |
| 20260905220033 | 101 | 212 | 0.0 | 0.9 | 0.00 | 0.00 | 0.00 | 48 | 1011.8 |
| 20260905215532 | 98 | 233 | 0.0 | 0.0 | 0.00 | 0.00 | 0.00 | 54 | 1011.8 |
| 20260905215028 | 97 | 246 | 0.9 | 1.7 | 0.00 | 0.00 | 0.00 | 57 | 1011.8 |
| 20260905214524 | 96 | 219 | 0.0 | 0.0 | 0.00 | 0.00 | 0.00 | 51 | 1012.0 |
| 20260905214019 | 96 | 202 | 0.0 | 0.9 | 0.00 | 0.00 | 0.00 | 56 | 1012.0 |
| 20260905213514 | 96 | 269 | 0.0 | 0.0 | 0.00 | 0.00 | 0.00 | 51 | 1012.0 |
| 20260905213010 | 96 | 297 | 0.0 | 0.9 | 0.00 | 0.00 | 0.00 | 54 | 1012.0 |
| 20260905212459 | 97 | 333 | 0.0 | 0.0 | 0.00 | 0.00 | 0.00 | 53 | 1011.9 |
| 20260905211958 | 97 | 269 | 0.0 | 0.0 | 0.00 | 0.00 | 0.00 | 50 | 1011.9 |
| 20260905211454 | 98 | 315 | 0.0 | 1.7 | 0.00 | 0.00 | 0.00 | 51 | 1011.8 |
| 20260905210949 | 99 | 239 | 0.0 | 0.9 | 0.00 | 0.00 | 0.00 | 48 | 1011.7 |
| 20260905210445 | 100 | 323 | 0.0 | 2.6 | 0.00 | 0.00 | 0.00 | 47 | 1011.8 |
| 20260905205944 | 104 | 248 | 0.0 | 1.7 | 0.00 | 0.00 | 0.00 | 45 | 1011.9 |
| 20260905205439 | 103 | 291 | 0.9 | 1.7 | 0.00 | 0.00 | 0.00 | 44 | 1012.1 |
| 20260905204938 | 103 | 227 | 0.0 | 1.7 | 0.00 | 0.00 | 0.00 | 42 | 1012.0 |
| 20260905204434 | 103 | 20 | 0.0 | 1.7 | 0.00 | 0.00 | 0.00 | 42 | 1011.9 |
| 20260905203932 | 102 | 262 | 0.9 | 1.7 | 0.00 | 0.00 | 0.00 | 43 | 1012.2 |
| 20260905203429 | 101 | 325 | 1.7 | 1.7 | 0.00 | 0.00 | 0.00 | 44 | 1012.2 |
| 20260905202924 | 100 | 238 | 0.0 | 2.6 | 0.00 | 0.00 | 0.00 | 45 | 1012.0 |
| 20260905202419 | 101 | 289 | 1.7 | 3.5 | 0.00 | 0.00 | 0.00 | 44 | 1012.3 |
| 20260905201915 | 102 | 246 | 0.0 | 2.6 | 0.00 | 0.00 | 0.00 | 45 | 1012.4 |
| 20260905201409 | 102 | 297 | 1.7 | 2.6 | 0.00 | 0.00 | 0.00 | 43 | 1012.5 |
| 20260905200904 | 102 | 241 | 1.7 | 2.6 | 0.00 | 0.00 | 0.00 | 46 | 1012.5 |
| 20260905200400 | 100 | 219 | 0.9 | 1.7 | 0.00 | 0.00 | 0.00 | 46 | 1012.7 |
| 20260905195857 | 99 | 249 | 0.0 | 4.3 | 0.00 | 0.00 | 0.00 | 47 | 1012.6 |
| 20260905195353 | 100 | 239 | 1.7 | 2.6 | 0.00 | 0.00 | 0.00 | 46 | 1012.7 |
| 20260905194848 | 101 | 154 | 0.0 | 2.6 | 0.00 | 0.00 | 0.00 | 48 | 1012.8 |
| 20260905194347 | 102 | 222 | 1.7 | 3.5 | 0.00 | 0.00 | 0.00 | 46 | 1012.8 |
| 20260905193842 | 102 | 101 | 0.9 | 1.7 | 0.00 | 0.00 | 0.00 | 45 | 1012.7 |
| 20260905193337 | 102 | 225 | 0.0 | 3.5 | 0.00 | 0.00 | 0.00 | 44 | 1012.9 |
| 20260905192833 | 101 | 348 | 0.9 | 2.6 | 0.00 | 0.00 | 0.00 | 46 | 1013.0 |
| 20260905192328 | 101 | 341 | 1.7 | 4.3 | 0.00 | 0.00 | 0.00 | 47 | 1013.4 |
| 20260905191827 | 102 | 283 | 1.7 | 1.7 | 0.00 | 0.00 | 0.00 | 42 | 1013.2 |
| 20260905191326 | 101 | 217 | 0.0 | 3.5 | 0.00 | 0.00 | 0.00 | 46 | 1013.2 |
| 20260905190824 | 101 | 284 | 0.0 | 2.6 | 0.00 | 0.00 | 0.00 | 45 | 1013.6 |
| 20260905190319 | 100 | 329 | 1.7 | 1.7 | 0.00 | 0.00 | 0.00 | 44 | 1013.5 |
| 20260905185818 | 101 | 35 | 1.7 | 2.6 | 0.00 | 0.00 | 0.00 | 45 | 1013.7 |
| 20260905185313 | 99 | 317 | 2.6 | 3.5 | 0.00 | 0.00 | 0.00 | 48 | 1013.6 |
| 20260905184807 | 100 | 297 | 0.9 | 1.7 | 0.00 | 0.00 | 0.00 | 45 | 1013.7 |
| 20260905184305 | 100 | 312 | 1.7 | 4.3 | 0.00 | 0.00 | 0.00 | 46 | 1013.7 |
| 20260905183759 | 98 | 273 | 0.0 | 1.7 | 0.00 | 0.00 | 0.00 | 49 | 1013.6 |
| 20260905183255 | 99 | 310 | 2.6 | 3.5 | 0.00 | 0.00 | 0.00 | 47 | 1013.9 |
| 20260905182754 | 100 | 352 | 0.0 | 1.7 | 0.00 | 0.00 | 0.00 | 46 | 1013.8 |
| 20260905182253 | 101 | 224 | 0.0 | 2.6 | 0.00 | 0.00 | 0.00 | 48 | 1013.9 |
| 20260905181749 | 100 | 267 | 0.9 | 2.6 | 0.00 | 0.00 | 0.00 | 47 | 1013.8 |
| 20260905181243 | 100 | 309 | 1.7 | 2.6 | 0.00 | 0.00 | 0.00 | 45 | 1013.9 |
| 20260905180737 | 98 | 205 | 0.9 | 2.6 | 0.00 | 0.00 | 0.00 | 47 | 1013.8 |
| 20260905180232 | 98 | 325 | 2.6 | 2.6 | 0.00 | 0.00 | 0.00 | 47 | 1014.1 |
| 20260905175733 | 96 | 345 | 0.0 | 1.7 | 0.00 | 0.00 | 0.00 | 48 | 1013.9 |
| 20260905175233 | 95 | 351 | 0.0 | 1.7 | 0.00 | 0.00 | 0.00 | 51 | 1014.1 |
| 20260905174722 | 96 | 217 | 0.9 | 1.7 | 0.00 | 0.00 | 0.00 | 54 | 1014.2 |
| 20260905174218 | 97 | 224 | 0.9 | 1.7 | 0.00 | 0.00 | 0.00 | 54 | 1014.1 |
| 20260905173714 | 97 | 232 | 0.0 | 1.7 | 0.00 | 0.00 | 0.00 | 56 | 1014.1 |
| 20260905173209 | 97 | 224 | 0.0 | 1.7 | 0.00 | 0.00 | 0.00 | 55 | 1014.1 |
| 20260905172709 | 97 | 219 | 1.7 | 2.6 | 0.00 | 0.00 | 0.00 | 54 | 1014.1 |
| 20260905172203 | 97 | 322 | 0.9 | 2.6 | 0.00 | 0.00 | 0.00 | 54 | 1014.3 |
| 20260905171659 | 97 | 243 | 0.0 | 4.3 | 0.00 | 0.00 | 0.00 | 53 | 1014.2 |
| 20260905171155 | 97 | 203 | 2.6 | 3.5 | 0.00 | 0.00 | 0.00 | 53 | 1014.3 |
| 20260905170653 | 97 | 205 | 1.7 | 2.6 | 0.00 | 0.00 | 0.00 | 54 | 1014.2 |
| 20260905170152 | 96 | 217 | 6.1 | 6.1 | 0.00 | 0.00 | 0.00 | 54 | 1014.6 |
| 20260905165651 | 96 | 302 | 0.9 | 2.6 | 0.00 | 0.00 | 0.00 | 52 | 1014.5 |
| 20260905165147 | 97 | 217 | 1.7 | 3.5 | 0.00 | 0.00 | 0.00 | 52 | 1014.6 |
| 20260905164642 | 97 | 210 | 3.5 | 4.3 | 0.00 | 0.00 | 0.00 | 54 | 1014.7 |
| 20260905164141 | 97 | 190 | 1.7 | 1.7 | 0.00 | 0.00 | 0.00 | 53 | 1014.6 |
| 20260905163637 | 95 | 234 | 1.7 | 3.5 | 0.00 | 0.00 | 0.00 | 55 | 1014.7 |
| 20260905163134 | 95 | 172 | 0.9 | 1.7 | 0.00 | 0.00 | 0.00 | 56 | 1014.7 |
| 20260905162630 | 96 | 186 | 0.9 | 2.6 | 0.00 | 0.00 | 0.00 | 57 | 1015.0 |
| 20260905162129 | 96 | 168 | 1.7 | 2.6 | 0.00 | 0.00 | 0.00 | 55 | 1014.9 |
| 20260905161628 | 97 | 210 | 1.7 | 3.5 | 0.00 | 0.00 | 0.00 | 55 | 1014.7 |
| 20260905161126 | 96 | 164 | 0.9 | 3.5 | 0.00 | 0.00 | 0.00 | 55 | 1014.9 |
| 20260905160621 | 97 | 175 | 0.9 | 2.6 | 0.00 | 0.00 | 0.00 | 55 | 1014.9 |
| 20260905160120 | 97 | 237 | 0.9 | 2.6 | 0.00 | 0.00 | 0.00 | 58 | 1015.0 |
| 20260905155615 | 96 | 275 | 0.0 | 2.6 | 0.00 | 0.00 | 0.00 | 57 | 1014.8 |
| 20260905155114 | 94 | 230 | 2.6 | 3.5 | 0.00 | 0.00 | 0.00 | 61 | 1015.0 |
| 20260905154609 | 95 | 215 | 0.9 | 3.5 | 0.00 | 0.00 | 0.00 | 61 | 1015.1 |
| 20260905154104 | 97 | 300 | 1.7 | 1.7 | 0.00 | 0.00 | 0.00 | 58 | 1015.1 |
| 20260905153600 | 97 | 242 | 0.0 | 0.9 | 0.00 | 0.00 | 0.00 | 57 | 1015.0 |
| 20260905153054 | 95 | 237 | 0.9 | 2.6 | 0.00 | 0.00 | 0.00 | 58 | 1015.1 |
| 20260905152549 | 95 | 230 | 0.0 | 2.6 | 0.00 | 0.00 | 0.00 | 59 | 1015.3 |
| 20260905152044 | 93 | 258 | 0.9 | 2.6 | 0.00 | 0.00 | 0.00 | 60 | 1015.3 |
| 20260905151539 | 92 | 250 | 0.9 | 1.7 | 0.00 | 0.00 | 0.00 | 66 | 1015.3 |
| 20260905151034 | 92 | 330 | 0.0 | 1.7 | 0.00 | 0.00 | 0.00 | 68 | 1015.3 |
| 20260905150530 | 91 | 218 | 1.7 | 1.7 | 0.00 | 0.00 | 0.00 | 68 | 1015.3 |
| 20260905150028 | 93 | 216 | 1.7 | 2.6 | 0.00 | 0.00 | 0.00 | 68 | 1015.4 |
| 20260905145521 | 93 | 228 | 1.7 | 1.7 | 0.00 | 0.00 | 0.00 | 65 | 1015.4 |
| 20260905145021 | 94 | 244 | 0.0 | 0.9 | 0.00 | 0.00 | 0.00 | 63 | 1015.1 |
| 20260905144516 | 92 | 205 | 0.0 | 1.7 | 0.00 | 0.00 | 0.00 | 67 | 1015.3 |
| 20260905144015 | 92 | 225 | 1.7 | 1.7 | 0.00 | 0.00 | 0.00 | 68 | 1015.3 |
| 20260905143514 | 92 | 299 | 0.0 | 0.9 | 0.00 | 0.00 | 0.00 | 65 | 1015.3 |
| 20260905143009 | 91 | 251 | 1.7 | 1.7 | 0.00 | 0.00 | 0.00 | 68 | 1015.1 |
| 20260905142508 | 89 | 160 | 0.0 | 0.0 | 0.00 | 0.00 | 0.00 | 71 | 1015.1 |
| 20260905142003 | 89 | 174 | 0.0 | 1.7 | 0.00 | 0.00 | 0.00 | 71 | 1015.0 |
| 20260905141457 | 89 | 183 | 0.0 | 1.7 | 0.00 | 0.00 | 0.00 | 72 | 1015.0 |
| 20260905140954 | 91 | 201 | 0.0 | 0.0 | 0.00 | 0.00 | 0.00 | 68 | 1015.0 |
| 20260905140449 | 89 | 104 | 0.0 | 0.9 | 0.00 | 0.00 | 0.00 | 71 | 1015.3 |
| 20260905135947 | 86 | 154 | 0.0 | 1.7 | 0.00 | 0.00 | 0.00 | 75 | 1015.0 |
| 20260905135443 | 86 | 218 | 0.0 | 0.9 | 0.00 | 0.00 | 0.00 | 76 | 1015.0 |
| 20260905134939 | 84 | 169 | 0.9 | 1.7 | 0.00 | 0.00 | 0.00 | 81 | 1015.0 |
| 20260905134438 | 84 | 202 | 0.9 | 0.9 | 0.00 | 0.00 | 0.00 | 81 | 1015.1 |
| 20260905133937 | 84 | 217 | 0.0 | 0.9 | 0.00 | 0.00 | 0.00 | 82 | 1015.0 |
| 20260905133432 | 84 | 164 | 0.9 | 0.9 | 0.00 | 0.00 | 0.00 | 79 | 1015.0 |
| 20260905132932 | 84 | 162 | 0.9 | 1.7 | 0.00 | 0.00 | 0.00 | 78 | 1015.0 |
| 20260905132427 | 85 | 212 | 0.0 | 0.0 | 0.00 | 0.00 | 0.00 | 77 | 1014.9 |
| 20260905131922 | 84 | 156 | 0.0 | 1.7 | 0.00 | 0.00 | 0.00 | 80 | 1015.0 |
| 20260905131418 | 84 | 166 | 1.7 | 1.7 | 0.00 | 0.00 | 0.00 | 79 | 1015.3 |
| 20260905130912 | 83 | 150 | 0.0 | 0.9 | 0.00 | 0.00 | 0.00 | 82 | 1015.1 |
| 20260905130412 | 82 | 173 | 0.9 | 0.9 | 0.00 | 0.00 | 0.00 | 84 | 1014.9 |
| 20260905125906 | 81 | 0 | 0.0 | 0.9 | 0.00 | 0.00 | 0.00 | 86 | 1014.9 |
| 20260905125406 | 79 | 19 | 0.0 | 0.9 | 0.00 | 0.00 | 0.00 | 92 | 1015.1 |
| 20260905124902 | 78 | 180 | 0.0 | 1.7 | 0.00 | 0.00 | 0.00 | 93 | 1014.8 |
| 20260905124359 | 77 | 180 | 0.0 | 1.7 | 0.00 | 0.00 | 0.00 | 94 | 1014.8 |
| 20260905123858 | 77 | 126 | 0.0 | 0.9 | 0.00 | 0.00 | 0.00 | 95 | 1014.8 |
| 20260905123355 | 76 | 315 | 0.0 | 0.9 | 0.00 | 0.00 | 0.00 | 96 | 1014.7 |
| 20260905122851 | 76 | 180 | 0.9 | 1.7 | 0.00 | 0.00 | 0.00 | 98 | 1014.7 |
| 20260905122350 | 75 | 202 | 0.0 | 1.7 | 0.00 | 0.00 | 0.00 | 99 | 1014.6 |
| 20260905121845 | 75 | 89 | 0.0 | 0.9 | 0.00 | 0.00 | 0.00 | 99 | 1014.7 |
| 20260905121341 | 74 | 119 | 0.0 | 0.9 | 0.00 | 0.00 | 0.00 | 99 | 1014.7 |
| 20260905120840 | 74 | 113 | 0.0 | 0.0 | 0.00 | 0.00 | 0.00 | 99 | 1014.9 |
| 20260905120340 | 74 | 269 | 0.0 | 0.9 | 0.00 | 0.00 | 0.00 | 99 | 1014.8 |
| 20260905115835 | 74 | 116 | 0.0 | 0.9 | 0.00 | 0.00 | 0.00 | 99 | 1014.7 |
| 20260905115334 | 74 | 34 | 0.0 | 0.9 | 0.00 | 0.00 | 0.00 | 99 | 1014.5 |
| 20260905114829 | 74 | 154 | 0.0 | 0.9 | 0.00 | 0.00 | 0.00 | 99 | 1014.5 |
| 20260905114329 | 73 | 76 | 0.0 | 0.0 | 0.00 | 0.00 | 0.00 | 99 | 1014.2 |
| 20260905113827 | 74 | 135 | 0.0 | 0.0 | 0.00 | 0.00 | 0.00 | 99 | 1014.3 |
| 20260905113323 | 74 | 76 | 0.0 | 0.9 | 0.00 | 0.00 | 0.00 | 99 | 1014.3 |
| 20260905112818 | 74 | 89 | 0.0 | 0.9 | 0.00 | 0.00 | 0.00 | 99 | 1014.4 |
| 20260905112314 | 74 | 89 | 0.0 | 0.0 | 0.00 | 0.00 | 0.00 | 99 | 1014.5 |
| 20260905111809 | 74 | 241 | 0.9 | 0.9 | 0.00 | 0.00 | 0.00 | 99 | 1014.2 |
| 20260905111309 | 74 | 145 | 0.0 | 0.0 | 0.00 | 0.00 | 0.00 | 99 | 1014.3 |
| 20260905110808 | 74 | 358 | 0.0 | 1.7 | 0.00 | 0.00 | 0.00 | 99 | 1014.3 |
| 20260905110301 | 74 | 89 | 0.0 | 0.9 | 0.00 | 0.00 | 0.00 | 99 | 1014.1 |
| 20260905105758 | 74 | 14 | 0.0 | 0.9 | 0.00 | 0.00 | 0.00 | 99 | 1014.0 |
| 20260905105256 | 74 | 147 | 0.0 | 0.9 | 0.00 | 0.00 | 0.00 | 99 | 1014.0 |
| 20260905104751 | 74 | 265 | 0.0 | 0.0 | 0.00 | 0.00 | 0.00 | 99 | 1013.8 |
| 20260905104248 | 74 | 88 | 0.0 | 0.0 | 0.00 | 0.00 | 0.00 | 99 | 1013.9 |
| 20260905103747 | 74 | 170 | 0.0 | 0.9 | 0.00 | 0.00 | 0.00 | 99 | 1014.0 |
| 20260905103242 | 74 | 135 | 0.0 | 0.9 | 0.00 | 0.00 | 0.00 | 98 | 1014.0 |
| 20260905102738 | 74 | 195 | 0.0 | 0.0 | 0.00 | 0.00 | 0.00 | 98 | 1014.0 |
| 20260905102235 | 74 | 25 | 0.0 | 0.9 | 0.00 | 0.00 | 0.00 | 98 | 1013.8 |
| 20260905101734 | 74 | 50 | 0.0 | 0.0 | 0.00 | 0.00 | 0.00 | 98 | 1013.9 |
| 20260905101232 | 75 | 129 | 0.0 | 0.9 | 0.00 | 0.00 | 0.00 | 98 | 1014.0 |
| 20260905100728 | 75 | 164 | 0.0 | 0.9 | 0.00 | 0.00 | 0.00 | 98 | 1014.1 |
| 20260905100223 | 75 | 160 | 0.9 | 0.9 | 0.00 | 0.00 | 0.00 | 98 | 1014.0 |
| 20260905095718 | 74 | 75 | 0.0 | 0.9 | 0.00 | 0.00 | 0.00 | 98 | 1014.0 |
| 20260905095218 | 74 | 282 | 0.0 | 0.0 | 0.00 | 0.00 | 0.00 | 98 | 1014.3 |
| 20260905094712 | 74 | 157 | 0.0 | 0.0 | 0.00 | 0.00 | 0.00 | 98 | 1014.0 |
| 20260905094207 | 75 | 157 | 0.0 | 0.0 | 0.00 | 0.00 | 0.00 | 98 | 1014.1 |
| 20260905093707 | 75 | 157 | 0.0 | 0.0 | 0.00 | 0.00 | 0.00 | 97 | 1014.1 |
| 20260905093203 | 75 | 157 | 0.0 | 0.0 | 0.00 | 0.00 | 0.00 | 97 | 1014.0 |
| 20260905092658 | 75 | 122 | 0.0 | 0.0 | 0.00 | 0.00 | 0.00 | 97 | 1014.0 |
| 20260905092154 | 75 | 117 | 0.0 | 0.0 | 0.00 | 0.00 | 0.00 | 97 | 1013.8 |
| 20260905091653 | 75 | 130 | 0.0 | 0.0 | 0.00 | 0.00 | 0.00 | 97 | 1014.1 |
| 20260905091153 | 75 | 130 | 0.0 | 0.0 | 0.00 | 0.00 | 0.00 | 97 | 1014.0 |
| 20260905090647 | 75 | 135 | 0.0 | 0.0 | 0.00 | 0.00 | 0.00 | 97 | 1014.1 |
| 20260905090143 | 75 | 180 | 0.0 | 0.0 | 0.00 | 0.00 | 0.00 | 96 | 1013.9 |
| 20260905085641 | 75 | 224 | 0.0 | 0.0 | 0.00 | 0.00 | 0.00 | 96 | 1013.8 |
| 20260905085137 | 75 | 222 | 0.0 | 0.0 | 0.00 | 0.00 | 0.00 | 96 | 1013.9 |
| 20260905084637 | 76 | 217 | 0.0 | 0.0 | 0.00 | 0.00 | 0.00 | 96 | 1014.1 |
| 20260905084132 | 76 | 129 | 0.0 | 0.0 | 0.00 | 0.00 | 0.00 | 96 | 1013.9 |
| 20260905083632 | 76 | 129 | 0.0 | 0.0 | 0.00 | 0.00 | 0.00 | 96 | 1013.8 |
| 20260905083128 | 76 | 154 | 0.0 | 0.0 | 0.00 | 0.00 | 0.00 | 95 | 1013.9 |
| 20260905082624 | 76 | 164 | 0.0 | 0.0 | 0.00 | 0.00 | 0.00 | 95 | 1013.8 |
| 20260905082119 | 76 | 173 | 0.0 | 0.9 | 0.00 | 0.00 | 0.00 | 95 | 1013.9 |
| 20260905081613 | 76 | 229 | 0.0 | 0.0 | 0.00 | 0.00 | 0.00 | 95 | 1013.9 |
| 20260905081108 | 76 | 205 | 0.0 | 0.0 | 0.00 | 0.00 | 0.00 | 95 | 1013.9 |
| 20260905080603 | 76 | 217 | 0.0 | 0.0 | 0.00 | 0.00 | 0.00 | 95 | 1013.8 |
| 20260905080057 | 76 | 217 | 0.0 | 0.0 | 0.00 | 0.00 | 0.00 | 94 | 1014.0 |
| 20260905075550 | 76 | 217 | 0.0 | 0.0 | 0.00 | 0.00 | 0.00 | 94 | 1013.7 |
| 20260905075044 | 76 | 235 | 0.0 | 0.0 | 0.00 | 0.00 | 0.00 | 94 | 1013.8 |
| 20260905074538 | 77 | 207 | 0.0 | 0.9 | 0.00 | 0.00 | 0.00 | 93 | 1013.8 |
| 20260905074034 | 77 | 217 | 0.0 | 0.0 | 0.00 | 0.00 | 0.00 | 93 | 1013.8 |
| 20260905073530 | 77 | 322 | 0.0 | 0.0 | 0.00 | 0.00 | 0.00 | 92 | 1013.9 |
| 20260905073026 | 77 | 338 | 0.9 | 0.9 | 0.00 | 0.00 | 0.00 | 92 | 1013.6 |
| 20260905072524 | 77 | 343 | 0.0 | 0.0 | 0.00 | 0.00 | 0.00 | 93 | 1013.9 |
| 20260905072020 | 77 | 217 | 0.0 | 0.0 | 0.00 | 0.00 | 0.00 | 94 | 1013.7 |
| 20260905071517 | 77 | 154 | 0.0 | 0.0 | 0.00 | 0.00 | 0.00 | 94 | 1013.8 |
| 20260905071017 | 77 | 145 | 0.0 | 0.0 | 0.00 | 0.00 | 0.00 | 93 | 1013.9 |
| 20260905070512 | 77 | 142 | 0.0 | 0.0 | 0.00 | 0.00 | 0.00 | 93 | 1013.7 |
| 20260905070008 | 77 | 160 | 0.0 | 0.9 | 0.00 | 0.00 | 0.00 | 93 | 1014.0 |
| 20260905065506 | 77 | 154 | 0.0 | 0.9 | 0.00 | 0.00 | 0.00 | 92 | 1013.8 |
| 20260905065001 | 77 | 154 | 0.0 | 0.0 | 0.00 | 0.00 | 0.00 | 92 | 1013.9 |
| 20260905064455 | 77 | 205 | 0.0 | 0.0 | 0.00 | 0.00 | 0.00 | 92 | 1014.0 |
| 20260905063950 | 77 | 202 | 0.0 | 0.0 | 0.00 | 0.00 | 0.00 | 93 | 1014.1 |
| 20260905063439 | 77 | 164 | 0.0 | 0.0 | 0.00 | 0.00 | 0.00 | 92 | 1014.0 |
| 20260905062936 | 77 | 154 | 0.0 | 0.0 | 0.00 | 0.00 | 0.00 | 92 | 1013.9 |
| 20260905062436 | 77 | 154 | 0.0 | 0.0 | 0.00 | 0.00 | 0.00 | 91 | 1013.8 |
| 20260905061931 | 77 | 255 | 0.0 | 0.0 | 0.00 | 0.00 | 0.00 | 91 | 1014.0 |
| 20260905061431 | 78 | 255 | 0.0 | 0.0 | 0.00 | 0.00 | 0.00 | 91 | 1013.9 |
| 20260905060930 | 78 | 164 | 0.0 | 0.0 | 0.00 | 0.00 | 0.00 | 90 | 1013.9 |
| 20260905060427 | 78 | 164 | 0.0 | 0.0 | 0.00 | 0.00 | 0.00 | 91 | 1014.0 |
| 20260905055926 | 78 | 164 | 0.0 | 0.0 | 0.00 | 0.00 | 0.00 | 90 | 1013.9 |
| 20260905055421 | 78 | 164 | 0.0 | 0.0 | 0.00 | 0.00 | 0.00 | 89 | 1014.0 |
| 20260905054920 | 78 | 142 | 0.0 | 0.0 | 0.00 | 0.00 | 0.00 | 89 | 1014.0 |
| 20260905054416 | 78 | 75 | 0.0 | 0.0 | 0.00 | 0.00 | 0.00 | 89 | 1014.1 |
| 20260905053915 | 78 | 37 | 0.0 | 0.0 | 0.00 | 0.00 | 0.00 | 89 | 1014.2 |
| 20260905053410 | 78 | 37 | 0.0 | 0.0 | 0.00 | 0.00 | 0.00 | 89 | 1014.2 |
| 20260905052906 | 78 | 37 | 0.0 | 0.0 | 0.00 | 0.00 | 0.00 | 89 | 1014.0 |
| 20260905052405 | 78 | 124 | 0.0 | 0.0 | 0.00 | 0.00 | 0.00 | 89 | 1014.3 |
| 20260905051905 | 78 | 25 | 0.0 | 0.0 | 0.00 | 0.00 | 0.00 | 88 | 1014.1 |
| 20260905051401 | 79 | 25 | 0.0 | 0.0 | 0.00 | 0.00 | 0.00 | 88 | 1014.1 |
| 20260905050858 | 79 | 25 | 0.0 | 0.0 | 0.00 | 0.00 | 0.00 | 87 | 1014.0 |
| 20260905050354 | 79 | 25 | 0.0 | 0.0 | 0.00 | 0.00 | 0.00 | 86 | 1014.2 |
| 20260905045849 | 79 | 202 | 0.0 | 0.0 | 0.00 | 0.00 | 0.00 | 86 | 1014.0 |
| 20260905045344 | 80 | 230 | 0.0 | 0.0 | 0.00 | 0.00 | 0.00 | 87 | 1014.2 |
| 20260905044839 | 80 | 230 | 0.0 | 0.0 | 0.00 | 0.00 | 0.00 | 86 | 1014.2 |
| 20260905044335 | 80 | 255 | 0.0 | 0.0 | 0.00 | 0.00 | 0.00 | 86 | 1014.5 |
| 20260905043833 | 80 | 55 | 0.0 | 0.0 | 0.00 | 0.00 | 0.00 | 86 | 1014.5 |
| 20260905043328 | 80 | 22 | 0.0 | 0.0 | 0.00 | 0.00 | 0.00 | 85 | 1014.5 |
| 20260905042823 | 80 | 154 | 0.0 | 0.0 | 0.00 | 0.00 | 0.00 | 84 | 1014.6 |
| 20260905042322 | 80 | 154 | 0.0 | 0.9 | 0.00 | 0.00 | 0.00 | 84 | 1014.5 |
| 20260905041817 | 80 | 228 | 0.0 | 0.0 | 0.00 | 0.00 | 0.00 | 85 | 1014.5 |
| 20260905041313 | 80 | 353 | 0.0 | 0.0 | 0.00 | 0.00 | 0.00 | 83 | 1014.6 |
| 20260905040808 | 80 | 353 | 0.0 | 0.0 | 0.00 | 0.00 | 0.00 | 83 | 1014.7 |
| 20260905040307 | 80 | 353 | 0.0 | 0.0 | 0.00 | 0.00 | 0.00 | 83 | 1014.6 |
| 20260905035801 | 80 | 353 | 0.0 | 0.0 | 0.00 | 0.00 | 0.00 | 83 | 1014.7 |
| 20260905035257 | 80 | 129 | 0.0 | 0.0 | 0.00 | 0.00 | 0.00 | 83 | 1014.6 |
| 20260905034754 | 80 | 129 | 0.0 | 0.0 | 0.00 | 0.00 | 0.00 | 83 | 1014.6 |
| 20260905034254 | 80 | 142 | 0.0 | 0.0 | 0.00 | 0.00 | 0.00 | 83 | 1014.7 |
| 20260905033752 | 80 | 135 | 0.0 | 0.0 | 0.00 | 0.00 | 0.00 | 83 | 1014.6 |
| 20260905033248 | 80 | 135 | 0.0 | 0.0 | 0.00 | 0.00 | 0.00 | 83 | 1014.7 |
| 20260905032747 | 81 | 135 | 0.0 | 0.0 | 0.00 | 0.00 | 0.00 | 83 | 1014.7 |
| 20260905032243 | 81 | 205 | 0.0 | 0.0 | 0.00 | 0.00 | 0.00 | 82 | 1014.5 |
| 20260905031738 | 81 | 213 | 0.0 | 1.7 | 0.00 | 0.00 | 0.00 | 81 | 1014.5 |
| 20260905031234 | 81 | 135 | 0.0 | 0.0 | 0.00 | 0.00 | 0.00 | 81 | 1014.5 |
| 20260905030729 | 81 | 135 | 0.0 | 0.0 | 0.00 | 0.00 | 0.00 | 81 | 1014.7 |